[[{"header":{"parameterUnit":"m.s-1","parameterCategory":1,"la1":30.2991,"la2":30.254,"lo1":-89.0895,"lo2":-89.0444,"dy":0.0017,"dx":0.0017,"nx":28,"ny":28,"refTime":"2023-08-24T21:00:00:Z","depth":0,"parameterNumber":2,"parameterNumberName":"U-component_of_WINDS"},"data":[0,0,0,0,0,0,0,0,0,0,0,0,0,0,0,0,0,0,0,0,0,0,0,0,0,0,0,0,0,0,0,0,0,0,0,0,0,0,0,0,0,0,0,0,0,0,0,0,0,0,0,0,0,0,0,0,0,0,-3.0766,-3.0766,0,-3.0731,-3.0731,-3.073,-3.0636,-3.0634,-3.0632,-3.063,-3.0597,-3.0598,-3.0599,0,0,0,0,0,0,0,0,0,0,0,0,0,-3.0755,-3.0756,-3.0766,-3.0766,-3.0765,-3.0731,-3.0731,-3.073,-3.0636,-3.0634,-3.0631,-3.0629,-3.0597,-3.0598,-3.0599,0,0,0,0,0,0,0,0,0,0,0,0,0,-3.0744,-3.0756,-3.0766,-3.0714,-3.0709,-3.0731,-3.0731,-3.073,-3.0637,-3.0634,-3.0631,-3.0628,-3.0596,-3.0598,-3.0599,-3.067,0,0,-3.0604,-3.0605,0,0,0,0,0,0,0,0,-3.0745,-3.0745,-3.0722,-3.0718,-3.0712,-3.0685,-3.0715,-3.071,-3.0638,-3.0664,-3.063,-3.0626,-3.0629,-3.0628,-3.0628,-3.0668,-3.0667,-3.0604,-3.0605,-3.0606,-3.0606,0,0,0,0,0,0,0,-3.0746,-3.0746,-3.0752,-3.0722,-3.0716,-3.0694,-3.0689,-3.0713,-3.0664,-3.0662,-3.0655,-3.0652,-3.0626,-3.0627,-3.0626,-3.0666,-3.0604,-3.0605,-3.0606,-3.0607,-3.0764,-3.0767,0,0,0,0,0,0,-3.0753,-3.0747,-3.0753,-3.0751,-3.0721,-3.0697,-3.0691,-3.0697,-3.0664,-3.0656,-3.0655,-3.0648,-3.0625,-3.0625,-3.0625,-3.0706,-3.0606,-3.0607,-3.0608,-3.0761,-3.0765,-3.0769,0,0,0,0,0,0,-3.0754,-3.0755,-3.0755,-3.0747,-3.0745,-3.07,-3.0707,-3.0698,-3.0698,-3.0658,-3.0649,-3.0664,-3.0623,-3.0623,-3.0659,-3.0703,-3.0608,-3.0609,-3.0757,-3.0762,-3.0767,-3.0868,0,0,0,0,0,0,-3.0754,-3.0756,-3.0781,-3.0748,-3.0746,-3.0789,-3.071,-3.0699,-3.0701,-3.0692,-3.0665,-3.0658,-3.0621,-3.0658,-3.0661,-3.0703,-3.061,-3.0753,-3.0759,-3.0765,-3.086,-3.0875,-3.0888,0,0,0,0,0,-3.0754,-3.0811,-3.0783,-3.0784,-3.0777,-3.0792,-3.0791,-3.0746,-3.0705,-3.0731,-3.0705,-3.0659,-3.0698,-3.0662,-3.0665,-3.0709,-3.075,-3.0758,-3.0765,-3.0854,-3.0872,-3.0888,0,0,0,0,0,0,-3.085,-3.0806,-3.0774,-3.0822,-3.0812,-3.0776,-3.0807,-3.0767,-3.0768,-3.0759,-3.0705,-3.07,-3.0745,-3.073,-3.0691,-3.0776,-3.0717,-3.0725,-3.0783,-3.0801,-3.0814,-3.0817,-3.0612,0,0,0,0,0,-3.0877,-3.0892,-3.0853,-3.0899,-3.0896,-3.0853,-3.0857,-3.0824,-3.0811,-3.0806,-3.0783,-3.0773,-3.0783,-3.0791,-3.0798,-3.0858,-3.0851,-3.089,-3.0904,-3.0916,-3.0923,-3.0955,-3.0972,-3.0793,-3.0793,-3.0792,0,0,-3.0933,-3.0911,-3.0923,-3.0918,-3.0906,-3.0924,-3.0849,-3.0871,-3.0884,-3.081,-3.0843,-3.0826,-3.0812,-3.086,-3.0881,-3.085,-3.0972,-3.0925,-3.0935,-3.0936,-3.0964,-3.0981,-3.0996,-3.0798,-3.0797,-3.0796,0,0,-3.1044,-3.1028,-3.1065,-3.1055,-3.1037,-3.1008,-3.1018,-3.0988,-3.0974,-3.1006,-3.0951,-3.0967,-3.0985,-3.0977,-3.0976,-3.1086,-3.1044,-3.109,-3.1163,-3.1195,-3.1209,-3.1221,-3.1261,-3.1276,-3.1098,-3.1098,-3.1098,0,-3.1115,-3.1139,-3.109,-3.1115,-3.1115,-3.1049,-3.1087,-3.1079,-3.1066,-3.1068,-3.1033,-3.1056,-3.1041,-3.1088,-3.1115,-3.1116,-3.1125,-3.1092,-3.1211,-3.1222,-3.1233,-3.1271,-3.1286,-3.1104,-3.1103,-3.1103,-3.1102,0,-3.1228,-3.1246,-3.1278,-3.1266,-3.127,-3.1302,-3.1259,-3.1269,-3.1236,-3.1211,-3.1246,-3.1227,-3.1229,-3.1238,-3.1206,-3.128,-3.1262,-3.122,-3.1159,-3.1257,-3.1291,-3.1305,-3.1112,-3.111,-3.1108,-3.1107,0,0,-3.1397,-3.1359,-3.1371,-3.1365,-3.1342,-3.1355,-3.1385,-3.1387,-3.1397,-3.139,-3.1414,-3.1432,-3.1394,-3.1392,-3.1359,-3.1387,-3.1476,-3.1342,-3.134,-3.1368,-3.1558,-3.159,-3.1607,-3.1448,-3.1451,-3.1453,-3.156,0,-3.1502,-3.1549,-3.1507,-3.1563,-3.1579,-3.1517,-3.1543,-3.1533,-3.1511,-3.1523,-3.1499,-3.1513,-3.146,-3.1459,-3.1484,-3.146,-3.1514,-3.1452,-3.1471,-3.1473,-3.1476,-3.1625,-3.1658,-3.1759,-3.1573,-3.1575,-3.1576,0,-3.1629,-3.1628,-3.1686,-3.166,-3.1665,-3.1689,-3.1688,-3.17,-3.1687,-3.167,-3.1669,-3.1629,-3.1657,-3.1599,-3.1638,-3.1597,-3.1603,-3.1593,-3.1596,-3.1595,-3.153,-3.1629,-3.179,-3.1806,-3.1597,-3.1595,-3.1594,0,-3.1748,-3.1761,-3.1797,-3.1794,-3.1764,-3.1783,-3.1772,-3.1756,-3.176,-3.176,-3.1762,-3.1766,-3.1768,-3.1772,-3.1735,-3.1695,-3.178,-3.1717,-3.1767,-3.1768,-3.1787,-3.1786,-3.1952,-3.1791,-3.1791,-3.1791,-3.179,0,-3.1868,-3.1906,-3.1849,-3.1872,-3.1913,-3.1865,-3.1907,-3.189,-3.1877,-3.1895,-3.1843,-3.1862,-3.1811,-3.1825,-3.1796,-3.1834,-3.1836,-3.1823,-3.1815,-3.1827,-3.1829,-3.183,-3.1822,-3.1795,-3.1794,-3.1793,-3.1792,0,-3.2006,-3.197,-3.2005,-3.1975,-3.1968,-3.2,-3.1974,-3.1995,-3.197,-3.1995,-3.1998,-3.196,-3.1974,-3.1937,-3.1946,-3.1927,-3.1981,-3.1962,-3.1985,-3.1979,-3.2031,-3.2027,-3.2203,-3.2223,-3.205,-3.2052,-3.2053,0,-3.2086,-3.2113,-3.2086,-3.2095,-3.2086,-3.2101,-3.2105,-3.2059,-3.2066,-3.2055,-3.2077,-3.2086,-3.2092,-3.2118,-3.2092,-3.2099,-3.2079,-3.214,-3.2079,-3.2092,-3.208,-3.2079,-3.2082,-3.2153,-3.2155,-3.2156,-3.2158,0,-3.223,-3.2211,-3.2219,-3.2221,-3.2227,-3.2227,-3.2223,-3.2233,-3.2185,-3.2195,-3.2209,-3.2213,-3.2222,-3.2233,-3.2234,-3.2224,-3.2184,-3.2177,-3.2189,-3.2202,-3.2215,-3.2209,-3.2019,-3.2173,-3.2172,-3.2171,-3.217,-3.2169,-3.2341,-3.2363,-3.2348,-3.2359,-3.2351,-3.2349,-3.2366,-3.2344,-3.2354,-3.2358,-3.2331,-3.2351,-3.2339,-3.2337,-3.2331,-3.2346,-3.2318,-3.2336,-3.234,-3.2345,-3.2353,-3.2213,-3.2347,-3.2346,-3.2346,-3.2345,-3.2345,0,-3.2483,-3.2471,-3.2481,-3.2477,-3.2486,-3.2447,-3.2441,-3.2451,-3.2469,-3.2461,-3.2467,-3.2484,-3.2495,-3.247,-3.2477,-3.2495,-3.2476,-3.2498,-3.2496,-3.2495,-3.2378,-3.2367,-3.2513,-3.2513,-3.2513,-3.2513,-3.2513,-3.2513,-3.2558,-3.2594,-3.2573,-3.2605,-3.2592,-3.261,-3.2611,-3.2609,-3.2602,-3.2623,-3.2631,-3.2615,-3.2601,-3.2607,-3.2616,-3.2608,-3.2614,-3.2642,-3.2628,-3.2519,-3.2503,-3.2487,-3.2477,-3.2643,-3.2644,-3.2744,-3.2745,-3.2745]},{"header":{"parameterUnit":"m.s-1","parameterCategory":1,"la1":30.2991,"la2":30.254,"lo1":-89.0895,"lo2":-89.0444,"dy":0.0017,"dx":0.0017,"nx":28,"ny":28,"refTime":"2023-08-24T21:00:00:Z","depth":0,"parameterNumber":3,"parameterNumberName":"V-component_of_WINDS"},"data":[0,0,0,0,0,0,0,0,0,0,0,0,0,0,0,0,0,0,0,0,0,0,0,0,0,0,0,0,0,0,0,0,0,0,0,0,0,0,0,0,0,0,0,0,0,0,0,0,0,0,0,0,0,0,0,0,0,0,-0.0584,-0.0584,0,-0.0578,-0.0578,-0.0578,-0.0564,-0.0563,-0.0563,-0.0563,-0.0557,-0.0557,-0.0557,0,0,0,0,0,0,0,0,0,0,0,0,0,-0.0581,-0.0581,-0.0584,-0.0584,-0.0584,-0.0578,-0.0578,-0.0578,-0.0564,-0.0563,-0.0563,-0.0563,-0.0557,-0.0557,-0.0557,0,0,0,0,0,0,0,0,0,0,0,0,0,-0.058,-0.0581,-0.0584,-0.0576,-0.0575,-0.0578,-0.0578,-0.0578,-0.0564,-0.0563,-0.0563,-0.0563,-0.0557,-0.0557,-0.0557,-0.0567,0,0,-0.0558,-0.0558,0,0,0,0,0,0,0,0,-0.058,-0.058,-0.0577,-0.0576,-0.0576,-0.0571,-0.0575,-0.0574,-0.0564,-0.0568,-0.0563,-0.0562,-0.0562,-0.0562,-0.0562,-0.0567,-0.0567,-0.0558,-0.0558,-0.0558,-0.0558,0,0,0,0,0,0,0,-0.058,-0.058,-0.0581,-0.0577,-0.0576,-0.0572,-0.0572,-0.0575,-0.0568,-0.0568,-0.0567,-0.0566,-0.0561,-0.0562,-0.0561,-0.0567,-0.0558,-0.0558,-0.0558,-0.0558,-0.0579,-0.0579,0,0,0,0,0,0,-0.0581,-0.058,-0.0582,-0.0581,-0.0577,-0.0573,-0.0572,-0.0573,-0.0568,-0.0566,-0.0567,-0.0566,-0.0561,-0.0561,-0.0561,-0.0572,-0.0558,-0.0558,-0.0558,-0.0578,-0.0579,-0.0579,0,0,0,0,0,0,-0.0581,-0.0581,-0.0582,-0.058,-0.058,-0.0573,-0.0575,-0.0573,-0.0573,-0.0567,-0.0565,-0.0568,-0.0561,-0.0561,-0.0566,-0.0572,-0.0558,-0.0558,-0.0578,-0.0579,-0.0579,-0.0594,0,0,0,0,0,0,-0.0581,-0.0582,-0.0586,-0.0581,-0.058,-0.0587,-0.0575,-0.0573,-0.0574,-0.0572,-0.0568,-0.0567,-0.0561,-0.0565,-0.0566,-0.0572,-0.0558,-0.0577,-0.0578,-0.0579,-0.0593,-0.0596,-0.0597,0,0,0,0,0,-0.0581,-0.059,-0.0586,-0.0586,-0.0585,-0.0587,-0.0587,-0.058,-0.0574,-0.0578,-0.0574,-0.0567,-0.0571,-0.0566,-0.0566,-0.0572,-0.0577,-0.0578,-0.0579,-0.0593,-0.0595,-0.0597,0,0,0,0,0,0,-0.0597,-0.059,-0.0585,-0.0593,-0.0591,-0.0585,-0.059,-0.0583,-0.0583,-0.0582,-0.0573,-0.0572,-0.0578,-0.0576,-0.057,-0.0581,-0.0573,-0.0574,-0.0583,-0.0585,-0.0587,-0.0588,-0.0559,0,0,0,0,0,-0.0601,-0.0603,-0.0597,-0.0605,-0.0604,-0.0597,-0.0598,-0.0592,-0.059,-0.0589,-0.0585,-0.0583,-0.0583,-0.0584,-0.0585,-0.0593,-0.0591,-0.0597,-0.0599,-0.0601,-0.0602,-0.0605,-0.0607,-0.0583,-0.0583,-0.0583,0,0,-0.061,-0.0606,-0.0609,-0.0608,-0.0605,-0.0608,-0.0596,-0.06,-0.0601,-0.0589,-0.0594,-0.059,-0.0587,-0.0594,-0.0596,-0.0592,-0.0608,-0.0602,-0.0603,-0.0603,-0.0606,-0.0609,-0.0611,-0.0583,-0.0583,-0.0583,0,0,-0.0628,-0.0625,-0.0631,-0.0629,-0.0626,-0.0621,-0.0622,-0.0617,-0.0615,-0.0619,-0.061,-0.0611,-0.0613,-0.061,-0.061,-0.0625,-0.0618,-0.0625,-0.0636,-0.0639,-0.0641,-0.0643,-0.0648,-0.065,-0.0626,-0.0626,-0.0626,0,-0.064,-0.0643,-0.0635,-0.0638,-0.0638,-0.0627,-0.0633,-0.0631,-0.0628,-0.0628,-0.0622,-0.0623,-0.0621,-0.0626,-0.063,-0.0629,-0.063,-0.0626,-0.0642,-0.0643,-0.0645,-0.065,-0.0652,-0.0627,-0.0627,-0.0627,-0.0627,0,-0.0657,-0.066,-0.0665,-0.0662,-0.0662,-0.0666,-0.0658,-0.0659,-0.0654,-0.0649,-0.0653,-0.0649,-0.0648,-0.0648,-0.0643,-0.0653,-0.065,-0.0643,-0.0634,-0.0648,-0.0652,-0.0654,-0.0628,-0.0628,-0.0628,-0.0628,0,0,-0.0686,-0.0678,-0.068,-0.0678,-0.0673,-0.0674,-0.0678,-0.0676,-0.0677,-0.0675,-0.0677,-0.0678,-0.0672,-0.0671,-0.0665,-0.0668,-0.068,-0.0661,-0.0661,-0.0664,-0.0689,-0.0694,-0.0697,-0.0675,-0.0675,-0.0676,-0.0689,0,-0.0703,-0.0708,-0.0701,-0.0708,-0.071,-0.0699,-0.0701,-0.0698,-0.0694,-0.0694,-0.0689,-0.069,-0.0682,-0.0681,-0.0683,-0.0678,-0.0685,-0.0677,-0.0677,-0.0677,-0.0678,-0.0699,-0.0704,-0.0718,-0.0691,-0.0691,-0.0692,0,-0.0723,-0.0722,-0.0729,-0.0723,-0.0723,-0.0726,-0.0723,-0.0724,-0.072,-0.0716,-0.0714,-0.0707,-0.071,-0.0701,-0.0703,-0.0698,-0.0697,-0.0695,-0.0695,-0.0695,-0.0685,-0.0699,-0.0722,-0.0724,-0.0694,-0.0694,-0.0694,0,-0.0743,-0.0743,-0.0747,-0.0746,-0.0738,-0.074,-0.0737,-0.0733,-0.0732,-0.073,-0.0729,-0.0727,-0.0726,-0.0725,-0.0717,-0.0711,-0.072,-0.0711,-0.0717,-0.0717,-0.072,-0.072,-0.0743,-0.0719,-0.0719,-0.0719,-0.0719,0,-0.0763,-0.0768,-0.0756,-0.0758,-0.0763,-0.0754,-0.0759,-0.0754,-0.075,-0.0751,-0.0742,-0.0743,-0.0732,-0.0732,-0.0726,-0.0729,-0.0728,-0.0725,-0.0724,-0.0726,-0.0727,-0.0726,-0.0725,-0.072,-0.072,-0.072,-0.072,0,-0.0786,-0.0778,-0.0782,-0.0774,-0.0772,-0.0776,-0.0769,-0.0771,-0.0765,-0.0767,-0.0767,-0.0758,-0.0757,-0.0749,-0.0747,-0.0742,-0.0747,-0.0744,-0.0749,-0.0748,-0.0754,-0.0754,-0.0778,-0.078,-0.0755,-0.0756,-0.0756,0,-0.0799,-0.0803,-0.0795,-0.0795,-0.0792,-0.0793,-0.0792,-0.0782,-0.0781,-0.0776,-0.0778,-0.0777,-0.0775,-0.0774,-0.0767,-0.0765,-0.0761,-0.077,-0.0761,-0.0763,-0.0761,-0.0761,-0.0761,-0.0772,-0.0772,-0.0773,-0.0773,0,-0.0823,-0.0819,-0.0818,-0.0816,-0.0815,-0.0812,-0.0809,-0.081,-0.0799,-0.0799,-0.0798,-0.0796,-0.0793,-0.0792,-0.0788,-0.0784,-0.0777,-0.0775,-0.0777,-0.078,-0.0782,-0.0781,-0.0754,-0.0775,-0.0775,-0.0775,-0.0775,-0.0774,-0.0842,-0.0844,-0.0839,-0.0838,-0.0834,-0.0831,-0.0832,-0.0827,-0.0826,-0.0822,-0.0817,-0.0816,-0.0811,-0.0805,-0.0802,-0.0801,-0.0796,-0.0798,-0.0799,-0.08,-0.0801,-0.0782,-0.08,-0.08,-0.08,-0.08,-0.08,0,-0.0865,-0.0861,-0.086,-0.0856,-0.0855,-0.0847,-0.0843,-0.0843,-0.0843,-0.0838,-0.0836,-0.0835,-0.0833,-0.0825,-0.0822,-0.0823,-0.0819,-0.0822,-0.0822,-0.0821,-0.0805,-0.0804,-0.0825,-0.0825,-0.0825,-0.0825,-0.0825,-0.0825,-0.0877,-0.088,-0.0875,-0.0876,-0.0872,-0.0871,-0.0869,-0.0866,-0.0863,-0.0861,-0.0859,-0.0854,-0.0848,-0.0845,-0.0842,-0.084,-0.0839,-0.0844,-0.084,-0.0825,-0.0823,-0.082,-0.082,-0.0843,-0.0844,-0.0856,-0.0857,-0.0857]}]]